SCP
0 0 0 0 0 0 0 0 0 0 0 0 0 0 0 0 0 0 0 0 0 0
0 0 0 0 0 0 0 0 0 0 0 0 0 0 0 0 0 0 0 0 0 0
0 0 0 0 0 0 0 0 0 0 0 0 0 0 0 0 0 0 0 0 0 0
0 0 0 0 0 0 0 0 0 0 0 0 0 0 0 0 0 0 0 0 0 0
0 0 0 0 0 0 0 0 0 0 0 0 0 0 0 0 0 0 0 0 0 0
0 0 0 0 0 0 0 0 0 0 0 0 0 0 0 0 0 0 0 0 0 0
0 0 0 0 0 0 0 0 0 0 0 0 0 0 0 0 0 0 0 0 0 0
0 0 0 0 0 0 0 0 0 0 0 0 0 0 0 0 0 0 0 0 0 0
0 0 0 0 0 0 0 0 0 0 0 0 0 0 0 0 0 0 0 0 0 0
0 0 0 0 0 0 0 0 0 0 0 0 0 0 0 0 0 0 0 0 0 0
0 0 0 0 0 0 0 0 0 0 0 0 0 0 0 0 0 0 0 0 0 0
0 0 0 0 0 0 0 0 0 0 0 0 0 0 0 0 0 0 0 0 0 0
0 0 0 0 0 0 0 0 0 0 0 0 0 0 0 0 0 0 0 0 0 0
0 0 0 0 0 0 0 0 0 0 0 0 0 0 0 0 0 0 0 0 0 0
Wind_Speed_500mb
57 59 48 35 31 29 27 17 8 9 15 17 8 10 14 17 19 18 17 17 17 18
51 44 37 36 33 28 14 7 12 25 19 10 8 14 17 18 17 16 17 18 19 20
46 40 41 40 28 16 2 24 40 20 12 9 12 14 17 18 18 19 19 18 20 21
51 54 40 29 9 29 36 23 21 15 12 14 15 16 18 19 20 19 19 20 21 22
51 46 24 27 33 30 19 21 17 17 19 20 19 19 21 24 24 22 21 22 23 24
39 28 23 27 27 23 21 19 20 23 24 24 24 25 26 27 28 27 26 26 27 27
28 21 25 26 25 22 20 23 26 27 28 29 30 31 32 32 31 32 30 32 32 32
25 27 27 27 23 22 26 29 30 31 34 35 36 36 37 36 38 38 39 38 37 37
31 27 26 27 26 28 30 31 36 38 39 40 40 41 42 43 45 46 46 44 43 42
33 30 29 32 33 32 33 38 42 42 44 43 43 46 47 49 52 51 50 51 49 49
33 32 36 39 37 37 40 43 45 47 47 46 46 50 53 55 57 58 56 55 54 54
36 39 43 44 40 42 45 46 49 48 49 51 49 54 56 59 63 62 61 59 59 57
43 46 48 45 44 45 49 51 51 52 52 54 55 56 61 63 67 68 67 65 64 61
45 47 45 45 47 48 51 53 55 57 55 57 61 61 65 67 72 72 71 69 69 64
Wind_Direction_500mb
217 221 205 197 172 173 175 184 173 292 312 308 298 338 348 351 347 342 345 345 344 344
210 198 176 166 168 165 181 226 292 310 286 252 308 336 333 332 334 338 342 339 335 336
191 173 168 157 159 182 289 288 283 258 247 278 297 313 312 316 324 329 329 327 324 324
173 156 154 167 183 254 260 260 248 248 259 271 285 297 299 305 312 311 311 311 309 311
152 142 160 237 256 249 235 244 246 256 257 262 275 284 292 296 299 297 295 293 296 302
154 189 220 237 235 231 239 246 252 256 258 265 275 281 287 289 287 283 285 286 290 293
181 221 229 239 230 239 255 256 257 260 263 269 276 281 283 278 278 278 281 282 286 289
229 235 229 226 245 257 256 256 260 264 268 272 276 280 279 278 279 279 278 279 282 286
244 237 226 247 255 257 260 264 266 268 271 273 277 280 281 281 277 276 276 278 280 282
240 227 246 257 259 264 268 268 269 272 273 275 279 282 284 281 278 274 276 276 278 278
230 245 257 264 267 270 271 272 273 274 276 279 283 282 282 281 280 278 277 275 276 276
250 262 270 272 273 273 274 277 278 278 278 281 282 282 284 284 282 279 277 276 274 274
265 271 277 277 274 275 278 278 278 278 279 281 284 285 286 284 280 279 279 277 274 274
273 279 277 274 275 279 279 279 277 278 281 284 286 286 285 282 280 282 280 277 276 275
Wind_Speed_850mb
57 59 48 35 31 29 27 17 8 9 15 17 8 10 14 17 19 18 17 17 17 18
51 44 37 36 33 28 14 7 12 25 19 10 8 14 17 18 17 16 17 18 19 20
46 40 41 40 28 16 2 24 40 20 12 9 12 14 17 18 18 19 19 18 20 21
51 54 40 29 9 29 36 23 21 15 12 14 15 16 18 19 20 19 19 20 21 22
51 46 24 27 33 30 19 21 17 17 19 20 19 19 21 24 24 22 21 22 23 24
39 28 23 27 27 23 21 19 20 23 24 24 24 25 26 27 28 27 26 26 27 27
28 21 25 26 25 22 20 23 26 27 28 29 30 31 32 32 31 32 30 32 32 32
25 27 27 27 23 22 26 29 30 31 34 35 36 36 37 36 38 38 39 38 37 37
31 27 26 27 26 28 30 31 36 38 39 40 40 41 42 43 45 46 46 44 43 42
33 30 29 32 33 32 33 38 42 42 44 43 43 46 47 49 52 51 50 51 49 49
33 32 36 39 37 37 40 43 45 47 47 46 46 50 53 55 57 58 56 55 54 54
36 39 43 44 40 42 45 46 49 48 49 51 49 54 56 59 63 62 61 59 59 57
43 46 48 45 44 45 49 51 51 52 52 54 55 56 61 63 67 68 67 65 64 61
45 47 45 45 47 48 51 53 55 57 55 57 61 61 65 67 72 72 71 69 69 64
Wind_Direction_850mb
217 221 205 197 172 173 175 184 173 292 312 308 298 338 348 351 347 342 345 345 344 344
210 198 176 166 168 165 181 226 292 310 286 252 308 336 333 332 334 338 342 339 335 336
191 173 168 157 159 182 289 288 283 258 247 278 297 313 312 316 324 329 329 327 324 324
173 156 154 167 183 254 260 260 248 248 259 271 285 297 299 305 312 311 311 311 309 311
152 142 160 237 256 249 235 244 246 256 257 262 275 284 292 296 299 297 295 293 296 302
154 189 220 237 235 231 239 246 252 256 258 265 275 281 287 289 287 283 285 286 290 293
181 221 229 239 230 239 255 256 257 260 263 269 276 281 283 278 278 278 281 282 286 289
229 235 229 226 245 257 256 256 260 264 268 272 276 280 279 278 279 279 278 279 282 286
244 237 226 247 255 257 260 264 266 268 271 273 277 280 281 281 277 276 276 278 280 282
240 227 246 257 259 264 268 268 269 272 273 275 279 282 284 281 278 274 276 276 278 278
230 245 257 264 267 270 271 272 273 274 276 279 283 282 282 281 280 278 277 275 276 276
250 262 270 272 273 273 274 277 278 278 278 281 282 282 284 284 282 279 277 276 274 274
265 271 277 277 274 275 278 278 278 278 279 281 284 285 286 284 280 279 279 277 274 274
273 279 277 274 275 279 279 279 277 278 281 284 286 286 285 282 280 282 280 277 276 275